THORAD AGENA D DEB, 4653

Orbit data source: Space-Track

THORAD AGENA D DEB, 4653 is space debris in SSO originally from a launch on Wed, 08 Apr 1970 UTC launched from the Air Force Western Test Range (AFWTR). Debris objects in space refer to the collection of defunct objects orbiting the Earth. Examples of debris include non-operational satellites, rocket bodies, and fragments generated from explosions, collisions, or faulty payload assembly.

Loading next visibility...
Identifier
4653, 1970-025AM
Orbit
SSO
Last TLE update
14 hours ago
Origin
Manufacturer
Unknown
Mission
Spacecraft
Bus & Motor
Unknown
Mass
Unknown
Launch date (UTC)
1970-04-08 (55 years ago)
Launch vehicle
Unknown
Launch site
Air Force Western Test Range (AFWTR)
Object type
Payload
Rocket body
Debris
Shape & HBR
Unknown
Radar Cross Section
Small (<0.1 m²)

Expand to show TLE details & history

TLE from 14 hours ago
0 THORAD AGENA D DEB
1 04653U 70025AM  25181.60620912  .00005433  00000-0  12097-2 0  9991
2 04653 100.0011  58.9787 0012890 245.2844 114.7008 14.57399304815826
Epoch: 2025-06-30T14:32Z
TLE epoch observation values (Epoch: 2025-06-30T14:32:56.467Z)
Latitude
0.00003°
Longitude
-78.17019°
Altitude
708.328 km
Speed
7.5 km/s
True Right ascension
03h 55m 54s
True Declination
0° 00' 00"
Sunlit
Object was in daylight at epoch
Visualization orbit readout
Latitude
79.64492°
Longitude
-151.21653°
Altitude
723.181 km
Speed
7.496 km/s
Apparent Right ascension
02h 54m 11s
Apparent Declination
27° 54' 08"
Sunlit
Object is in daylight
Visualization observer readout
Local Sidereal Time
15:45:11
Azimuth
12.071° NNE
Elevation
-21.151°
Doppler factor
1
Orbital elements
Apogee altitude
707.882 km
Perigee altitude
689.638 km
Semi-major axis
7,076.897 km
Eccentricity
0.00129
Inclination
100.0011°
RAAN
58.9787°
Arg. of periapsis
245.2844°
True anomaly
Unknown
Mean anomaly
114.7008°
Eccentric anomaly
Unknown
Mean motion
3.64568 °/min
Orbital period
98.75 mins
BSTAR
0.0012097
Loading maneuver chart data...
Loading SW <> Apogee altitude chart data...

THORAD AGENA D DEB Visibility forecast

Observer location: undefined°, undefined°

Span
Click to sort rows by Start time (UTC) header in descending order
Start Az.
Max El. time (UTC)
Max El. Az.
Max El.
End time (UTC)
End Az.
8 mins2025-07-01 04:18:46.236Z33.746° NE2025-07-01 04:22:46.236Z108.797° ESE33.22°2025-07-01 04:26:46.236Z170.454° S
5 mins2025-07-01 05:57:46.236Z328.884° NNW2025-07-01 05:59:46.236Z296.543° NW19.798°2025-07-01 06:02:46.236Z252.993° W
8 mins2025-07-01 15:23:46.236Z144.436° SSE2025-07-01 15:27:46.236Z47.956° ENE38.871°2025-07-01 15:31:46.236Z354.246° N
4 mins2025-07-01 17:03:46.236Z246.625° WSW2025-07-01 17:04:46.236Z260.44° W14.28°2025-07-01 17:07:46.236Z299.876° NW
|